Location: Unspecified
(46.0725°N, 13.7344°E)
Time: 06:03:47
(UTC+02:00)

Cosmos 2058 - Visible Passes

Search period start: 17 July 2018 00:00
Search period end: 27 July 2018 00:00
Orbit: 562 x 585 km, 82.5° (Epoch: 16 July)

Date Brightness Start Highest point End Pass type
(mag) Time Alt. Az. Time Alt. Az. Time Alt. Az.
17 Jul 5.3 21:52:47 10° SW 21:56:10 25° WNW 21:59:34 10° NNW visible
18 Jul 5.8 21:56:24 10° WSW 21:59:24 19° WNW 22:02:26 10° NNW visible
19 Jul 5.9 22:00:12 10° WSW 22:02:40 15° WNW 22:05:09 10° NNW visible
20 Jul 6.2 22:04:18 10° W 22:05:57 12° WNW 22:07:37 10° NW visible
